Hourly Data Report for January 17, 2017

TORONTO CITY
ONTARIO

43°40'00.000" N
79°24'00.000" W
112.50 m
6158355
71508
XTO

Download Data

Hourly Data (January 2017)
Hourly Data Report for January 17, 2017
TIME
LST
Temp Definition
°C
Dew Point Definition
°C
Rel Hum Definition
%
Precip. Amount Definition
mm

Wind Dir Definition
10's deg

Wind Spd Definition
km/h
Visibility Definition
km
Stn Press Definition
kPa
Hmdx Definition


Wind Chill Definition


Weather Definition


00:00 2.4 -4.8 59 0.0 LegendMM LegendMM   100.92     LegendNANA
01:00 2.0 -3.9 65 0.0 LegendMM LegendMM   100.80     LegendNANA
02:00 2.4 -4.3 61 0.0 LegendMM LegendMM   100.79     LegendNANA
03:00 2.4 -2.2 72 0.0 LegendMM LegendMM   100.78     LegendNANA
04:00 1.8 -1.3 80 0.0 LegendMM LegendMM   100.69     LegendNANA
05:00 1.4 -0.7 86 0.5 LegendMM LegendMM   100.66     LegendNANA
06:00 1.8 0.5 91 0.3 LegendMM LegendMM   100.56     LegendNANA
07:00 1.5 0.2 92 0.2 LegendMM LegendMM   100.43     LegendNANA
08:00 1.7 0.2 90 0.4 LegendMM LegendMM   100.32     LegendNANA
09:00 2.0 0.4 89 0.3 LegendMM LegendMM   100.22     LegendNANA
10:00 1.6 0.2 91 1.1 LegendMM LegendMM   100.13     LegendNANA
11:00 1.6 0.5 92 3.2 LegendMM LegendMM   99.98     LegendNANA
12:00 1.7 0.4 91 1.5 LegendMM LegendMM   99.85     LegendNANA
13:00 1.4 0.4 93 2.4 LegendMM LegendMM   99.74     LegendNANA
14:00 1.7 0.8 94 1.7 LegendMM LegendMM   99.67     LegendNANA
15:00 2.0 1.2 94 0.0 LegendMM LegendMM   99.59     LegendNANA
16:00 2.2 1.4 95 0.0 LegendMM LegendMM   99.57     LegendNANA
17:00 2.1 1.2 94 0.3 LegendMM LegendMM   99.57     LegendNANA
18:00 2.0 1.1 94 0.0 LegendMM LegendMM   99.55     LegendNANA
19:00 1.6 0.7 94 0.3 LegendMM LegendMM   99.57     LegendNANA
20:00 1.7 0.8 94 0.0 LegendMM LegendMM   99.56     LegendNANA
21:00 1.9 1.1 95 0.9 LegendMM LegendMM   99.57     LegendNANA
22:00 1.9 0.9 93 0.4 LegendMM LegendMM   99.57     LegendNANA
23:00 1.9 0.9 93 0.2 LegendMM LegendMM   99.58     LegendNANA

Notes on Data Quality.

Legend

  • E = Estimated
  • M = Missing
  • NA = Not Available*
  • [empty] = Indicates an unobserved value
Date modified: